Date,TemperatureHighF,TemperatureAvgF,TemperatureLowF,DewpointHighF,DewpointAvgF,DewpointLowF,HumidityHigh,HumidityAvg,HumidityLow,PressureMaxIn,PressureMinIn,WindSpeedMaxMPH,WindSpeedAvgMPH,GustSpeedMaxMPH,PrecipitationSumIn
2013-1-1,39,36,26,27,21,10,64,55,45,29.97,29.80,11,7,22,0.00
2013-1-2,33,27,21,16,11,8,63,52,43,30.12,29.97,14,6,22,0.00
2013-1-3,33,27,17,16,13,7,70,56,42,30.18,30.03,10,3,15,0.00
2013-1-4,38,34,30,22,19,17,62,55,44,30.03,29.91,14,6,21,0.00
2013-1-5,42,35,27,22,19,16,81,55,39,30.24,29.97,12,4,28,0.00
2013-1-6,46,37,29,30,26,24,84,65,42,30.18,29.94,8,3,14,0.00
2013-1-7,44,36,26,28,23,17,88,63,35,30.36,30.00,9,3,21,0.00
2013-1-8,48,35,23,28,24,20,93,70,44,30.39,30.33,12,2,14,0.00
2013-1-9,47,35,26,35,29,23,94,81,59,30.36,30.12,8,2,17,0.00
2013-1-10,47,39,30,24,22,19,77,54,33,30.50,30.45,10,2,19,0.00
2013-1-11,41,36,29,37,30,24,94,82,62,30.50,30.09,5,1,8,0.00
2013-1-12,45,43,40,43,42,38,94,93,91,30.15,30.06,5,2,10,0.00
2013-1-13,48,44,42,45,43,41,95,94,89,30.12,30.00,5,1,9,0.00
2013-1-14,55,48,37,51,40,29,95,78,45,30.27,29.88,9,3,21,0.00
2013-1-15,38,36,34,33,26,23,89,68,56,30.33,30.21,9,3,13,0.00
2013-1-16,34,32,31,33,31,27,94,93,74,30.21,29.80,8,1,11,0.00
2013-1-17,42,38,34,33,27,21,94,66,50,30.06,29.88,13,3,20,0.00
2013-1-18,33,27,24,21,8,2,62,47,32,30.45,30.00,12,6,20,0.00
2013-1-19,50,39,28,26,20,10,63,47,34,30.36,29.91,16,7,25,0.00
2013-1-20,52,42,30,28,21,8,72,45,17,30.00,29.68,24,8,38,0.00
2013-1-21,30,28,22,16,10,6,64,49,37,30.06,29.83,13,3,25,0.00
2013-1-22,27,20,13,16,-1,-12,66,42,26,30.18,29.80,18,10,29,0.00
2013-1-23,19,14,10,-1,-6,-10,65,43,29,30.24,30.12,11,6,20,0.00
2013-1-24,22,16,9,3,-2,-7,83,52,28,30.36,30.12,19,7,29,0.00
2013-1-25,23,17,12,15,3,-4,89,59,35,30.39,30.06,8,3,23,0.00
2013-1-26,28,18,7,9,5,1,91,63,33,30.33,30.03,14,5,23,0.00
2013-1-27,33,25,14,10,7,4,78,50,31,30.50,30.36,11,4,17,0.00
2013-1-28,34,29,22,32,24,11,94,83,66,30.47,29.97,11,2,14,0.00
2013-1-29,47,38,34,38,34,32,95,88,70,30.12,29.97,6,1,11,0.00
2013-1-30,55,46,37,53,44,35,96,93,85,30.06,29.38,7,1,16,0.00
2013-1-31,59,40,30,55,18,8,88,41,30,29.74,29.18,24,13,37,0.00
2013-2-1,30,28,24,13,9,4,65,46,34,30.18,29.77,17,6,28,0.00
2013-2-2,29,24,18,19,8,1,89,54,31,30.27,30.06,11,4,19,0.00
2013-2-3,31,25,18,20,17,14,93,75,54,30.03,29.77,6,2,12,0.00
2013-2-4,30,27,23,18,8,4,77,48,34,29.94,29.80,18,6,24,0.00
2013-2-5,30,28,25,25,21,10,88,78,49,29.94,29.88,6,2,9,0.00
2013-2-6,38,32,24,26,18,0,95,63,29,30.33,29.88,12,4,20,0.00
2013-2-7,31,26,20,17,7,0,64,47,30,30.50,30.33,9,2,10,0.00
2013-2-8,34,31,27,31,28,20,97,87,69,30.33,29.62,15,7,29,0.00
2013-2-9,32,27,22,26,14,1,97,64,29,30.30,29.74,16,9,29,0.00
2013-2-10,39,24,9,17,7,1,83,56,25,30.45,30.30,5,1,12,0.00
2013-2-11,40,33,25,39,30,18,95,89,77,30.30,29.65,3,0,7,0.00
2013-2-12,44,40,32,36,25,22,96,58,42,29.94,29.68,16,6,26,0.00
2013-2-13,44,35,22,31,23,18,93,66,40,29.91,29.68,5,1,12,0.00
2013-2-14,46,37,28,33,27,22,95,72,40,29.97,29.68,7,1,11,0.00
2013-2-15,56,41,29,34,30,26,92,69,34,29.97,29.88,9,3,18,0.00
2013-2-16,37,34,31,33,24,13,91,67,47,29.94,29.74,10,5,19,0.00
2013-2-17,30,26,17,12,3,-3,47,38,27,29.97,29.65,21,12,38,0.00
2013-2-18,35,25,17,12,3,-1,51,41,26,30.21,29.97,16,7,25,0.00
2013-2-19,47,36,24,41,26,11,93,70,42,30.18,29.65,14,3,21,0.00
2013-2-20,38,30,25,21,12,7,56,47,38,29.94,29.68,18,11,31,0.00
2013-2-21,32,27,24,14,10,8,60,50,42,30.27,29.94,20,10,31,0.00
2013-2-22,37,31,24,27,19,12,74,62,48,30.39,30.24,10,4,18,0.00
2013-2-23,40,36,33,38,34,28,94,91,74,30.24,29.83,11,2,16,0.00
2013-2-24,44,38,33,37,30,21,94,75,51,29.94,29.74,13,5,25,0.00
2013-2-25,43,37,26,28,25,21,84,61,44,30.21,29.97,7,2,16,0.00
2013-2-26,42,37,29,33,29,26,91,76,61,30.27,29.94,8,3,31,0.00
2013-2-27,46,42,36,43,38,33,92,86,72,29.88,29.47,19,7,37,0.00
2013-2-28,48,42,37,39,32,28,94,72,47,29.59,29.53,7,2,16,0.00
2013-3-1,44,39,30,30,27,24,88,64,48,29.77,29.59,12,5,19,0.00
2013-3-2,38,35,31,27,23,21,81,61,51,29.77,29.68,10,7,19,0.00
2013-3-3,40,32,29,20,17,15,66,54,40,29.74,29.65,13,8,23,0.00
2013-3-4,40,33,27,19,17,13,65,53,41,29.88,29.74,14,8,29,0.00
2013-3-5,47,39,31,25,22,19,64,52,37,30.00,29.88,11,5,22,0.00
2013-3-6,42,39,37,34,29,25,81,66,57,29.97,29.85,20,9,37,0.00
2013-3-7,39,36,33,32,28,25,94,76,58,30.06,29.91,21,10,29,0.00
2013-3-8,42,36,31,33,30,26,96,81,53,30.18,30.00,13,5,25,0.00
2013-3-9,55,44,34,25,20,14,60,40,20,30.27,30.18,14,6,19,0.00
2013-3-10,50,39,27,35,30,25,93,73,53,30.36,30.27,7,2,13,0.00
2013-3-11,54,46,37,46,39,33,86,79,61,30.30,30.06,9,3,19,0.00
2013-3-12,54,51,44,52,46,36,93,84,69,30.06,29.65,13,5,21,0.00
2013-3-13,49,42,33,35,28,18,91,60,29,29.85,29.77,13,5,20,0.00
2013-3-14,40,34,29,27,11,3,63,39,23,29.94,29.83,22,10,34,0.00
2013-3-15,45,37,30,28,16,6,56,43,32,29.94,29.71,15,7,29,0.00
2013-3-16,41,35,31,30,24,18,92,67,48,29.88,29.77,6,2,18,0.00
2013-3-17,37,33,28,29,17,10,92,54,33,30.27,29.88,14,5,20,0.00
2013-3-18,34,30,26,30,15,5,96,57,38,30.39,30.03,12,4,16,0.00
2013-3-19,44,36,32,33,32,29,97,85,63,30.00,29.68,12,6,25,0.00
2013-3-20,43,37,31,25,18,13,61,46,29,29.85,29.77,17,6,26,0.00
2013-3-21,39,34,31,26,14,8,77,44,27,29.83,29.62,11,6,20,0.00
2013-3-22,40,34,28,19,15,12,59,47,36,29.85,29.71,15,6,24,0.00
2013-3-23,44,38,32,22,17,15,59,43,31,29.91,29.80,18,8,27,0.00
2013-3-24,46,38,28,23,19,17,67,47,32,29.91,29.71,12,4,19,0.00
2013-3-25,42,39,37,34,26,21,87,62,42,29.68,29.44,9,3,26,0.00
2013-3-26,50,41,32,31,26,21,90,58,33,29.83,29.56,11,4,25,0.00
2013-3-27,51,42,32,30,24,19,73,51,29,29.94,29.83,13,4,27,0.00
2013-3-28,49,43,31,31,28,26,83,57,44,30.09,29.94,16,5,19,0.00
2013-3-29,53,46,35,29,26,22,73,47,31,30.12,30.03,10,5,23,0.00
2013-3-30,58,45,30,30,22,-100,88,47,19,30.15,30.03,8,3,18,0.00
2013-3-31,55,44,30,43,32,23,92,66,29,30.09,29.68,12,3,24,0.00
2013-4-1,61,47,38,45,36,10,95,69,29,29.88,29.62,17,6,33,0.00
2013-4-2,43,37,30,16,11,7,52,35,23,30.06,29.88,18,8,27,0.00
2013-4-3,45,38,33,13,10,8,44,32,22,30.27,30.06,15,9,29,0.00
2013-4-4,53,41,28,27,18,12,62,41,25,30.36,30.09,11,4,22,0.00
2013-4-5,61,49,40,28,21,14,61,37,18,30.06,29.71,15,6,27,0.00
2013-4-6,54,43,35,27,13,3,60,33,13,30.30,29.97,12,6,24,0.00
2013-4-7,55,47,38,42,33,24,72,59,38,30.27,29.97,13,4,26,0.00
2013-4-8,75,58,42,43,40,33,91,57,23,30.06,29.97,11,3,18,0.00
2013-4-9,80,64,49,50,42,33,88,51,19,29.97,29.88,14,3,29,0.00
2013-4-10,72,62,53,55,48,40,92,64,42,29.94,29.80,9,3,29,0.00
2013-4-11,61,55,47,56,46,38,94,74,49,30.03,29.77,10,5,17,0.00
2013-4-12,47,43,40,40,37,34,92,81,65,30.03,29.71,19,7,30,0.00
2013-4-13,58,49,40,39,34,29,90,60,35,29.94,29.74,10,4,21,0.00
2013-4-14,55,51,47,37,29,23,62,44,29,30.18,29.94,19,5,24,0.00
2013-4-15,58,49,40,34,28,23,70,46,33,30.36,30.21,9,3,17,0.00
2013-4-16,64,55,46,52,45,35,77,68,60,30.36,30.09,12,4,20,0.00
2013-4-17,68,61,53,54,41,32,83,51,26,30.27,30.09,11,4,16,0.00
2013-4-18,60,53,45,53,42,31,88,66,34,30.33,30.09,16,5,19,0.00
2013-4-19,73,64,56,61,57,53,92,79,62,30.09,29.62,12,5,21,0.00
2013-4-20,63,54,48,60,33,22,92,50,26,30.24,29.65,18,8,28,0.00
2013-4-21,53,44,37,25,20,16,52,38,24,30.59,30.30,13,5,20,0.00
2013-4-22,53,46,38,34,29,23,75,53,30,30.65,30.50,13,5,22,0.00
2013-4-23,51,45,40,40,35,30,86,69,63,30.47,30.09,15,6,21,0.00
2013-4-24,70,53,36,50,43,34,93,70,43,30.09,29.83,14,2,17,0.00
2013-4-25,65,56,46,51,29,18,77,39,17,30.21,29.83,15,6,24,0.00
2013-4-26,65,55,38,39,30,19,92,45,17,30.39,30.27,9,3,15,0.00
2013-4-27,68,57,40,32,26,-100,68,35,19,30.42,30.27,7,3,15,0.00
2013-4-28,68,56,42,41,33,26,86,45,24,30.30,30.18,9,2,19,0.00
2013-4-29,57,55,53,48,45,38,82,68,52,30.24,30.18,6,2,14,0.00
2013-4-30,66,58,49,46,36,23,77,49,21,30.33,30.18,8,2,17,0.00
2013-5-1,68,55,39,42,36,24,90,55,23,30.47,30.33,8,2,18,0.00
2013-5-2,72,56,41,47,40,33,93,61,26,30.45,30.30,7,2,10,0.00
2013-5-3,65,56,48,43,37,31,80,50,29,30.45,30.36,9,4,17,0.00
2013-5-4,69,55,42,45,41,37,93,63,34,30.36,30.24,11,3,18,0.00
2013-5-5,64,52,41,42,38,33,91,62,34,30.30,30.21,10,3,16,0.00
2013-5-6,70,56,43,52,46,40,91,72,48,30.27,30.15,9,2,15,0.00
2013-5-7,73,60,48,58,52,46,94,74,56,30.15,30.09,7,2,15,0.00
2013-5-8,63,60,55,60,56,51,94,88,76,30.09,29.97,7,2,14,0.00
2013-5-9,68,58,52,57,54,50,94,87,64,30.00,29.88,5,1,6,0.00
2013-5-10,80,65,50,57,51,-100,94,67,32,29.97,29.88,7,2,11,0.00
2013-5-11,70,64,61,63,59,-100,94,88,76,29.88,29.71,7,2,0,0.00
2013-5-12,69,61,53,58,40,24,94,52,23,29.91,29.65,22,6,0,0.00
2013-5-13,54,49,41,33,28,22,67,44,28,30.09,29.91,10,4,20,0.00
2013-5-14,61,50,35,36,28,18,91,49,18,30.12,30.00,12,3,14,0.00
2013-5-15,69,56,40,56,46,36,91,70,43,30.03,29.65,8,2,17,0.00
2013-5-16,81,59,52,55,32,-100,94,64,31,29.80,29.71,9,1,13,0.00
2013-5-17,72,62,55,52,33,-100,81,46,29,30.18,29.83,9,3,17,0.00
2013-5-18,66,58,48,54,49,42,93,73,42,30.30,30.18,6,1,14,0.00
2013-5-19,58,57,56,56,54,51,94,90,77,30.30,30.18,5,2,11,0.00
2013-5-20,81,68,57,65,60,55,95,79,54,30.15,29.94,9,2,12,0.00
2013-5-21,88,77,61,67,65,60,94,69,45,29.97,29.83,9,3,17,0.00
2013-5-22,81,70,59,69,63,56,90,79,65,29.91,29.83,9,3,13,0.00
2013-5-23,79,71,65,71,66,63,94,85,65,29.88,29.77,11,3,17,0.00
2013-5-24,65,56,46,63,52,40,94,87,76,29.91,29.68,15,5,20,0.00
2013-5-25,53,49,45,44,41,37,90,75,57,29.97,29.88,16,7,34,0.00
2013-5-26,66,56,48,39,36,31,69,50,29,30.18,29.91,20,7,28,0.00
2013-5-27,76,60,41,42,37,32,90,48,20,30.24,30.09,7,2,18,0.00
2013-5-28,69,57,49,56,51,43,94,81,39,30.21,30.12,5,1,11,0.00
2013-5-29,86,70,58,65,60,56,95,76,47,30.12,30.00,10,2,16,0.00
2013-5-30,91,81,66,67,62,55,91,57,29,30.12,30.06,6,2,13,0.00
2013-5-31,93,81,66,68,62,56,92,57,32,30.12,29.97,11,2,16,0.00
2013-6-1,91,81,67,67,62,-100,88,58,39,30.00,29.88,8,4,18,0.00
2013-6-2,88,80,73,69,66,63,78,62,46,29.91,29.77,14,4,23,0.00
2013-6-3,78,72,67,68,64,47,92,78,44,29.85,29.80,6,2,22,0.00
2013-6-4,75,66,57,47,41,38,57,42,27,30.09,29.88,19,6,21,0.00
2013-6-5,75,63,51,48,44,40,76,52,32,30.21,30.09,9,2,14,0.00
2013-6-6,72,63,53,58,53,44,93,73,41,30.12,30.03,9,3,19,0.00
2013-6-7,61,60,59,59,58,56,94,92,91,30.00,29.65,11,4,17,0.00
2013-6-8,77,67,57,61,58,54,94,76,55,30.03,29.59,11,4,19,0.00
2013-6-9,81,70,58,61,57,52,94,66,37,30.18,30.03,5,1,15,0.00
2013-6-10,70,65,61,65,62,59,93,89,80,30.15,29.85,10,2,20,0.00
2013-6-11,80,70,62,67,62,58,94,78,55,29.83,29.62,13,4,25,0.00
2013-6-12,75,69,60,58,53,49,82,57,40,29.83,29.71,16,5,26,0.00
2013-6-13,63,60,57,60,57,53,93,89,80,29.83,29.47,8,3,21,0.60
2013-6-14,74,62,53,55,52,49,92,72,47,29.85,29.53,15,5,24,0.47
2013-6-15,80,68,56,56,51,44,93,59,30,30.00,29.88,11,2,15,0.00
2013-6-16,81,70,56,63,56,49,91,65,35,29.97,29.77,9,3,22,0.00
2013-6-17,86,75,64,65,62,57,93,66,39,29.91,29.83,10,2,16,0.00
2013-6-18,82,69,64,67,63,61,92,81,52,29.91,29.83,8,2,24,0.61
2013-6-19,76,66,58,60,52,42,91,64,32,30.12,29.88,10,4,16,0.04
2013-6-20,78,66,54,57,54,48,93,69,35,30.27,30.15,4,1,12,0.00
2013-6-22,84,78,68,59,56,52,64,48,34,30.27,30.12,8,4,18,0.00
2013-6-23,88,77,64,70,64,57,88,65,45,30.18,30.06,13,3,19,0.00
2013-6-24,93,82,72,71,66,58,91,63,31,30.06,29.94,8,2,17,0.00
2013-6-25,91,81,68,68,66,63,90,63,42,30.00,29.80,7,2,19,0.00
2013-6-26,85,80,74,69,66,64,83,63,53,29.85,29.80,6,2,19,0.00
2013-6-27,85,80,72,71,69,68,92,71,57,29.83,29.56,8,3,20,0.59
2013-6-28,86,78,73,71,67,62,90,70,45,29.56,29.47,11,4,21,0.00
2013-6-29,85,76,68,68,65,63,91,69,50,29.68,29.47,8,2,16,0.00
2013-6-30,83,75,68,73,70,66,93,84,65,29.91,29.68,8,2,17,0.00
2013-7-1,76,74,71,72,70,69,94,88,84,30.03,29.88,6,2,12,0.22
2013-7-2,84,78,73,73,71,69,91,79,65,30.18,30.03,9,3,20,0.04
2013-7-3,84,78,73,73,70,68,89,78,65,30.24,30.18,8,2,15,0.00
2013-7-4,90,82,75,73,70,68,91,70,50,30.24,30.15,14,4,19,0.00
2013-7-5,91,84,75,71,69,66,85,62,43,30.21,30.09,6,2,16,0.00
2013-7-6,92,83,77,73,70,67,82,66,46,30.15,30.03,8,3,17,0.00
2013-7-7,94,85,73,73,70,65,91,64,40,30.06,29.94,8,3,30,0.25
2013-7-8,88,76,69,69,67,63,91,75,45,30.03,29.97,9,2,13,0.00
2013-7-9,88,80,70,68,67,65,88,65,48,30.09,29.97,8,2,14,0.00
2013-7-10,86,79,75,73,66,-100,80,67,56,30.00,29.81,9,3,15,0.67
2013-7-11,85,79,74,73,68,63,89,70,49,29.93,29.80,7,2,12,0.01
2013-7-12,77,73,68,68,64,61,90,73,64,30.10,29.93,13,5,15,0.08
2013-7-13,80,73,66,73,69,63,93,87,77,30.28,30.11,6,2,14,0.03
2013-7-14,91,82,72,73,70,67,93,71,45,30.34,30.23,6,2,12,0.00
2013-7-15,94,84,77,74,70,65,86,66,40,30.24,30.14,8,2,16,0.00
2013-7-16,92,84,73,74,67,62,90,61,38,30.19,30.14,9,2,13,0.00
2013-7-17,94,85,73,72,69,63,91,62,35,30.20,30.06,5,1,9,0.00
2013-7-18,95,86,76,74,70,64,82,61,37,30.06,29.95,8,2,13,0.00
2013-7-19,95,88,78,75,72,68,85,61,43,29.96,29.78,11,3,19,0.00
2013-7-20,92,84,80,74,67,-100,71,59,43,29.81,29.72,11,3,23,0.00
2013-7-21,86,79,74,71,63,56,87,59,37,29.95,29.83,5,2,10,0.00
2013-7-22,81,76,71,73,70,65,92,83,69,29.95,29.81,6,1,13,0.36
2013-7-23,87,78,73,72,71,69,93,81,56,29.79,29.55,11,2,19,0.44
2013-7-24,80,75,69,71,64,52,94,70,49,29.92,29.60,15,4,20,0.00
2013-7-25,68,65,62,58,53,47,74,65,57,30.05,29.93,11,6,21,0.00
2013-7-26,83,73,65,61,58,57,78,62,43,30.02,29.98,7,3,17,0.00
2013-7-27,83,73,63,64,61,56,93,68,43,30.05,29.96,7,2,16,0.00
2013-7-28,79,71,65,69,65,62,93,81,63,29.97,29.93,6,2,16,0.20
2013-7-29,84,75,67,69,62,50,94,69,34,30.08,29.95,6,1,16,0.00
2013-7-30,79,70,58,60,56,52,90,63,42,30.16,30.09,8,2,18,0.00
2013-7-31,80,71,59,61,59,56,93,67,44,30.15,30.03,5,1,11,0.00
2013-8-1,75,68,66,67,64,61,93,86,61,30.03,29.82,6,1,12,0.25
2013-8-2,83,74,64,67,61,55,94,68,41,29.90,29.78,7,2,0,0.00
2013-8-3,78,70,66,65,61,57,87,75,57,29.90,29.85,8,2,0,0.00
2013-8-4,79,75,67,55,52,50,58,46,38,29.95,29.85,11,6,20,0.00
2013-8-5,77,67,56,57,49,40,83,55,33,30.05,29.96,12,3,13,0.00
2013-8-6,80,68,55,59,54,50,93,65,35,30.11,30.02,9,2,15,0.00
2013-8-7,78,72,65,66,62,59,88,72,60,30.13,30.06,10,3,18,0.00
2013-8-8,82,74,70,72,69,66,92,84,67,30.06,30.00,9,3,14,0.29
2013-8-9,86,77,73,74,71,69,93,85,61,30.00,29.80,9,3,19,0.38
2013-8-10,83,74,65,71,62,54,94,68,40,30.03,29.85,7,2,16,0.00
2013-8-11,80,70,58,61,56,50,92,65,40,30.12,30.02,4,1,11,0.00
2013-8-12,83,73,68,66,63,55,93,73,39,30.02,29.92,4,1,9,0.05
2013-8-13,78,70,66,68,63,-100,94,83,63,29.92,29.69,5,1,25,0.65
2013-8-14,73,66,59,64,52,45,93,61,45,30.01,29.75,13,5,23,0.00
2013-8-15,76,59,52,56,40,-100,93,62,33,30.13,30.03,7,2,16,0.00
2013-8-16,80,65,55,58,48,-100,94,63,33,30.18,30.11,4,1,9,0.00
2013-8-17,82,68,56,61,53,-100,94,65,33,30.27,30.19,6,1,9,0.00
2013-8-18,75,68,62,62,60,56,92,76,57,30.25,30.12,4,0,7,0.00
2013-8-19,80,66,60,62,53,-100,93,73,48,30.12,30.03,7,2,10,0.00
2013-8-20,67,66,65,62,62,62,90,88,86,30.05,30.04,0,0,3,0.00
2013-8-21,88,82,70,64,58,55,82,46,34,30.16,30.05,7,2,17,0.00
2013-8-22,76,72,67,70,68,64,92,87,80,30.06,29.87,4,1,13,0.11
2013-8-23,79,72,65,68,60,51,93,68,38,30.08,29.87,9,3,19,0.00
2013-8-24,79,68,61,57,49,-100,84,54,34,30.33,30.10,11,3,13,0.00
2013-8-25,82,69,55,59,53,49,94,62,32,30.39,30.22,5,2,13,0.00
2013-8-26,79,73,68,69,60,53,92,63,55,30.22,29.93,7,2,13,0.05
2013-8-27,84,74,71,69,67,64,92,79,56,29.89,29.81,10,3,21,0.00
2013-8-28,75,74,72,69,68,67,92,84,75,29.88,29.85,7,2,17,0.04
2013-8-29,80,72,68,69,66,63,93,81,62,30.01,29.88,7,2,11,0.00
2013-8-30,85,79,70,69,66,63,86,64,48,30.02,29.85,7,3,13,0.00
2013-8-31,86,78,73,72,67,-100,84,72,59,29.86,29.79,9,2,13,0.00
2013-9-1,84,77,71,73,71,69,94,82,65,29.86,29.79,5,1,13,1.42
2013-9-2,79,75,71,72,71,69,93,87,78,29.80,29.70,4,0,7,0.02
2013-9-3,80,73,66,70,61,53,93,70,42,29.88,29.70,7,3,16,0.00
2013-9-4,81,70,59,58,55,49,90,63,37,29.99,29.88,12,4,15,0.00
2013-9-5,75,68,57,60,51,39,89,60,28,30.13,29.92,11,3,19,0.00
2013-9-6,71,60,52,49,44,38,88,57,32,30.25,30.13,7,2,13,0.00
2013-9-7,79,63,47,52,45,-100,93,60,30,30.12,29.90,7,1,11,0.00
2013-9-8,80,70,61,61,52,41,76,55,30,30.06,29.81,9,3,23,0.00
2013-9-9,72,63,50,57,48,43,89,60,37,30.24,30.07,8,2,13,0.00
2013-9-10,87,76,67,71,66,58,85,72,58,30.14,30.05,7,2,15,0.01
2013-9-11,94,84,72,73,71,69,92,68,50,30.11,29.97,7,2,16,0.00
2013-9-12,86,76,68,71,69,65,95,79,60,29.98,29.70,12,3,28,2.63
2013-9-13,74,67,59,66,58,48,95,75,51,29.83,29.63,13,4,23,0.06
2013-9-14,64,57,50,47,44,-100,85,63,50,30.10,29.84,10,4,15,0.00
2013-9-15,73,56,44,52,45,41,94,73,32,30.20,30.07,6,1,9,0.00
2013-9-16,70,61,55,56,52,48,93,74,47,30.22,30.01,12,2,19,0.01
2013-9-17,64,55,48,48,40,36,92,59,35,30.42,30.24,15,4,23,0.00
2013-9-18,55,45,43,51,43,41,95,93,88,30.34,30.18,0,0,0,0.00
2013-9-19,78,61,45,53,48,44,94,69,30,30.18,30.06,4,1,8,0.00
2013-9-20,79,64,49,57,53,47,94,72,40,30.08,29.99,7,2,14,0.00
2013-9-21,76,65,52,66,57,-100,94,79,60,30.00,29.66,10,4,24,0.17
2013-9-22,68,62,55,66,50,41,94,67,45,29.90,29.64,12,4,23,0.33
2013-9-23,65,55,44,46,42,38,92,62,42,30.03,29.90,9,4,17,0.00
2013-9-24,72,55,41,48,43,39,93,68,34,30.04,29.86,7,2,13,0.00
2013-9-25,72,57,43,52,46,41,94,70,34,29.95,29.88,5,1,8,0.01
2013-9-26,70,59,49,55,52,47,95,79,53,30.09,29.93,6,1,10,0.00
2013-9-27,66,59,51,53,51,49,93,77,60,30.25,30.09,8,2,11,0.00
2013-9-28,72,60,53,53,49,-100,92,72,44,30.32,30.24,7,2,12,0.00
2013-9-29,72,60,49,56,52,47,95,78,51,30.22,30.08,5,0,11,0.00
2013-9-30,75,59,47,54,50,46,95,76,39,30.08,29.97,5,0,8,0.00
2013-10-1,66,64,61,59,59,58,89,85,79,29.93,29.92,0,0,0,0.00
2013-10-2,83,67,53,62,57,52,94,74,43,29.99,29.91,7,2,16,0.00
2013-10-3,77,65,53,60,56,49,95,75,38,30.12,30.00,5,0,8,0.00
2013-10-4,85,70,58,66,62,57,94,77,44,30.05,29.96,7,1,15,0.00
2013-10-5,76,67,64,63,62,60,89,82,65,30.09,30.01,4,1,8,0.00
2013-10-6,67,65,64,64,63,62,94,91,86,30.09,30.03,6,2,13,0.00
2013-10-7,75,66,59,69,63,53,94,88,76,30.02,29.74,13,3,32,0.40
2013-10-8,66,56,47,51,46,42,94,71,42,30.32,29.97,9,2,14,0.00
2013-10-9,58,53,51,49,44,40,80,70,57,30.40,30.29,13,4,15,0.00
2013-10-10,61,57,52,52,49,45,80,75,70,30.29,30.09,8,5,13,0.00
2013-10-11,67,63,58,58,55,51,78,75,71,30.09,30.02,10,4,17,0.00
2013-10-12,72,63,58,56,46,-100,76,57,24,30.28,30.07,10,4,21,0.00
2013-10-13,63,57,52,51,49,47,90,74,61,30.39,30.28,15,5,18,0.00
2013-10-14,66,56,49,51,48,44,94,77,46,30.36,30.24,4,1,8,0.00
2013-10-15,71,56,46,53,49,44,94,79,46,30.25,30.12,7,1,10,0.00
2013-10-16,66,58,50,58,53,48,93,83,70,30.10,29.93,4,1,8,0.00
2013-10-17,74,66,61,61,59,57,93,80,55,29.90,29.70,6,2,14,0.00
2013-10-18,67,61,50,61,46,40,85,58,36,29.96,29.66,12,5,19,0.00
2013-10-19,63,52,41,51,42,-100,93,72,43,29.97,29.74,6,1,13,0.00
2013-10-20,63,54,44,52,40,31,86,62,31,30.04,29.73,9,3,17,0.00
2013-10-21,67,52,37,44,38,31,94,64,26,30.14,29.98,10,2,15,0.00
2013-10-22,64,53,43,49,44,41,94,74,52,29.96,29.74,6,2,13,0.00
2013-10-23,54,46,39,42,37,33,94,73,45,29.80,29.61,4,2,18,0.00
2013-10-24,53,45,39,35,30,24,83,56,33,29.98,29.73,14,5,22,0.00
2013-10-25,52,42,33,33,30,25,87,63,34,30.20,29.99,11,2,21,0.00
2013-10-26,55,42,30,35,27,-100,95,63,31,30.20,29.89,9,2,26,0.00
2013-10-27,57,49,38,33,30,27,80,52,33,30.09,29.84,11,3,18,0.00
2013-10-28,62,45,31,38,30,-100,94,65,30,30.29,30.10,6,1,20,0.00
2013-10-29,54,45,37,37,31,27,89,59,38,30.41,30.31,7,2,11,0.00
2013-10-30,56,46,36,46,40,34,92,80,62,30.34,30.17,2,0,4,0.00
2013-10-31,65,54,41,57,50,39,94,87,67,30.21,29.82,8,1,17,0.00
2013-11-1,71,64,54,61,55,50,90,74,48,29.78,29.54,9,5,37,0.13
2013-11-2,67,56,47,50,45,38,94,73,41,29.70,29.61,3,1,21,0.00
2013-11-3,49,43,36,40,29,20,88,59,48,30.41,29.82,13,5,21,0.00
2013-11-4,46,37,33,29,18,12,82,47,25,30.64,30.44,9,3,20,0.00
2013-11-5,54,44,33,41,34,27,86,68,51,30.64,30.48,5,1,12,0.00
2013-11-6,61,51,38,49,42,36,94,76,52,30.47,30.07,12,2,14,0.00
2013-11-7,62,52,37,56,46,29,92,79,54,30.05,29.75,12,4,23,0.03
2013-11-8,48,42,35,33,27,21,86,58,37,30.18,29.91,12,4,24,0.00
2013-11-9,50,42,31,30,23,-100,80,51,32,30.27,30.00,11,4,14,0.00
2013-11-10,60,50,44,37,31,27,65,49,30,30.01,29.79,11,7,29,0.00
2013-11-11,52,48,41,30,26,23,49,42,35,30.18,29.94,16,6,23,0.00
2013-11-12,50,38,31,32,22,14,80,52,41,30.26,29.91,15,7,26,0.01
2013-11-13,39,31,27,18,14,9,65,49,30,30.35,30.26,17,5,22,0.00
2013-11-14,53,40,26,19,15,11,72,41,20,30.24,30.14,15,3,18,0.00
2013-11-15,57,41,28,29,23,17,84,53,22,30.22,30.13,7,1,10,0.00
2013-11-16,60,46,34,44,36,-100,93,73,45,30.31,30.21,6,1,9,0.01
2013-11-17,59,54,42,57,51,40,94,91,85,30.26,29.80,4,1,10,0.00
2013-11-18,65,59,51,59,39,25,92,53,25,29.77,29.57,17,6,27,0.11
2013-11-19,49,43,36,28,23,20,52,45,36,30.31,29.76,24,11,30,0.00
2013-11-20,43,35,29,20,15,9,66,46,24,30.58,30.33,13,5,22,0.00
2013-11-21,50,39,24,36,28,17,86,66,46,30.60,30.39,5,1,11,0.00
2013-11-22,57,50,44,47,44,37,92,79,68,30.37,29.89,10,2,13,0.04
2013-11-23,53,41,31,46,21,-100,79,48,29,30.03,29.88,17,9,30,0.00
2013-11-24,29,26,22,7,2,-4,47,38,24,30.34,29.99,33,11,35,0.00
2013-11-25,36,28,18,11,8,5,67,45,31,30.45,30.31,10,4,19,0.00
2013-11-26,43,35,32,42,22,12,94,62,37,30.31,29.86,5,1,16,0.47
2013-11-27,61,45,35,58,40,19,94,82,53,29.77,29.33,17,7,29,1.31
2013-11-28,34,30,25,17,12,6,67,47,31,30.44,29.72,23,7,32,0.00
2013-11-29,36,31,26,21,16,12,74,55,42,30.71,30.45,11,3,15,0.00
2013-11-30,35,29,22,25,13,-100,67,54,38,30.74,30.39,8,2,12,0.00
2013-12-1,49,39,31,31,28,24,84,67,44,30.36,30.00,4,1,8,0.00
2013-12-2,45,38,32,35,33,30,94,83,68,29.99,29.87,4,1,5,0.00
2013-12-3,54,38,28,36,31,27,96,81,45,29.98,29.85,2,0,7,0.00
2013-12-4,50,40,30,38,33,28,95,79,57,30.11,29.99,4,0,6,0.00
2013-12-5,52,48,45,51,46,39,95,92,78,30.10,29.93,3,0,4,0.02
2013-12-6,55,46,36,54,44,33,96,92,88,30.12,29.85,7,3,18,0.81
2013-12-7,39,35,31,33,23,-100,93,67,45,30.50,30.09,14,5,21,0.04
2013-12-8,31,29,26,25,17,12,85,62,50,30.57,30.39,7,3,12,0.00
2013-12-9,37,33,28,35,31,26,94,93,91,30.37,29.95,10,3,13,0.05
2013-12-10,33,31,27,32,28,18,95,88,70,30.06,29.85,9,2,14,0.15
2013-12-11,33,28,24,16,14,11,66,55,40,30.29,30.10,10,5,19,0.00
2013-12-12,28,24,21,13,5,1,63,46,35,30.32,30.15,12,5,21,0.00
2013-12-13,34,26,19,18,9,1,70,49,40,30.29,30.10,12,5,24,0.00
2013-12-14,28,22,19,22,15,-100,94,80,63,30.48,29.88,11,5,19,0.14
2013-12-15,37,32,28,30,27,20,96,81,58,29.80,29.51,10,3,19,0.31
2013-12-16,32,26,16,20,10,6,77,51,39,30.20,29.80,13,4,23,0.00
2013-12-17,25,22,16,22,17,9,92,87,76,30.20,29.93,6,3,13,0.05
2013-12-18,36,27,17,20,17,13,91,68,46,30.13,29.91,13,3,20,0.00
2013-12-19,45,33,20,28,22,15,88,65,39,30.15,30.00,6,2,16,0.00
2013-12-20,49,39,30,33,30,27,91,70,47,30.07,29.95,5,1,11,0.00
2013-12-21,60,48,37,49,39,-100,92,75,57,29.96,29.88,6,2,13,0.00
2013-12-22,69,62,53,60,55,49,91,78,66,29.94,29.78,14,6,22,0.00
2013-12-23,59,52,41,56,49,32,94,88,67,30.12,29.91,11,3,23,0.50
2013-12-24,40,34,26,29,20,8,91,57,41,30.31,30.07,15,8,27,0.00
2013-12-25,28,23,18,11,5,3,56,48,38,30.50,30.33,10,4,29,0.00
2013-12-26,35,28,24,24,20,15,86,73,61,30.41,30.16,6,1,13,0.00
2013-12-27,39,32,24,22,20,15,84,64,41,30.33,30.24,7,2,15,0.00
2013-12-28,54,37,25,25,20,-100,88,58,30,30.26,30.05,12,2,20,0.00
2013-12-29,45,39,33,39,35,29,95,86,55,29.99,29.42,8,3,19,0.91
2013-12-30,41,33,22,36,23,7,94,68,46,30.18,29.66,15,6,24,0.00
2013-12-31,31,25,19,21,10,6,74,55,45,30.24,30.04,11,3,21,0.00
2014-1-1,32,27,20,18,11,4,65,54,45,30.39,30.25,9,3,14,0.00
2014-1-2,30,23,13,21,16,8,90,79,57,30.23,29.69,18,7,22,0.07